TITAN 3C TRANSTAGE DEB, 1668

Orbit data source: Space-Track

TITAN 3C TRANSTAGE DEB, 1668 is space debris in LEO originally from a launch on Fri, 15 Oct 1965 UTC launched from the Air Force Eastern Test Range (AFETR). Debris objects in space refer to the collection of defunct objects orbiting the Earth. Examples of debris include non-operational satellites, rocket bodies, and fragments generated from explosions, collisions, or faulty payload assembly.

Loading next visibility...
TITAN 3C TRANSTAGE DEB details
Identifier
1668, 1965-082AF
Orbit
LEO
Last TLE update14 hours ago
Origin
Flag of USUSAF SSD (US)
ManufacturerUnknown
MissionSpacecraft
Bus & MotorUnknown
Mass370 kg wet, 370 kg dry
Launch date (UTC)
1965-10-15 (59 years ago)
Launch vehicleUnknown
Launch site
Air Force Eastern Test Range (AFETR)
Object type
Payload
Rocket body
Debris
Shape & HBRUnknown
Radar Cross Section2.800 m², Large (>1 m²)

Expand to show TLE details & history

TLE from 14 hours ago
0 TITAN 3C TRANSTAGE DEB
1 01668U 65082AF  24355.92866352  .00003332  00000-0  42736-3 0  9998
2 01668  32.0677 249.7951 0015384 326.6008  33.3670 14.79825213137725
Epoch: 2024-12-20T22:17Z
Definitive object data (Epoch: 2024-12-20T22:17:16.528Z)
Latitude-0°
Longitude-174.51091°
Altitude619.512 km
Speed7.556 km/s
True Right ascension16h 39m 10s
True Declination0° 00' 00"
Sunlit
Object was in daylight at TLE epoch
Visualization TLE readout
Latitude-27.90504°
Longitude59.14515°
Altitude636.07 km
Speed7.541 km/s
Apparent Right ascension04h 48m 12s
Apparent Declination-58° 02' 45"
Sunlit
Object is in full shadow
Visualization observer readout
Local Sidereal Time11:21:20
Azimuth221.03° SW
Elevation-37.08°
Doppler factor1
Orbital elements
Apogee altitude644.296 km
Perigee altitude622.722 km
Semi-major axis7,011.646 km
Eccentricity0.0015384
Inclination32.0677°
RAAN249.7951°
Arg. of periapsis326.6008°
True anomaly33.46411°
Mean anomaly33.367°
Eccentric anomaly33.41554°
Mean motion3.69669 °/min
BSTAR0.00042736
Orbital period97.38 mins
Loading maneuver chart data...

TITAN 3C TRANSTAGE DEB Visibility forecast

Observer location: undefined°, undefined

Span
Click to sort rows by Start time (UTC) header in descending order
Start Az.
Max El. time (UTC)
Max El. Az.
Max El.
End time (UTC)
End Az.
6 mins2024-12-21 21:12:33.894Z207.115° SW2024-12-21 21:15:33.894Z161.644° S19.664°2024-12-21 21:18:33.894Z118.291° SE
6 mins2024-12-21 22:55:33.894Z225.161° WSW2024-12-21 22:57:33.894Z188.044° SSW26.723°2024-12-21 23:01:33.894Z119.869° SE
5 mins2024-12-22 00:38:33.894Z227.896° WSW2024-12-22 00:40:33.894Z191.402° SSW22.479°2024-12-22 00:43:33.894Z144.628° SSE
|